When you browse on this site, cookies collect data to enhance your experience and personalize the content and advertising you see.
Visit our Privacy Policy to learn more. By continuing to use the site, you agree to this use of cookies and data.
  • în România
  • Lista ţărilor
  • Pe 7 zile
  • Temperatura apei
  • Meteo pe hartă
  • Widget-uri
  • user-avatar
    Intrare

    Meteo pe oră la Maturín

    Astăzi, 23 Ianuarie, Joi

    Timp Temperatura Precipitaţii Vânt Presiune Umiditate
    00:00 +23°C° 0 mm 1 m/s 755 mmHg 94%
    01:00 +23°C° 0 mm 1 m/s 755 mmHg 96%
    02:00 +23°C° 0 mm 1 m/s 754 mmHg 98%
    03:00 +23°C° 0 mm 1 m/s 754 mmHg 97%
    04:00 +23°C° 0 mm 1 m/s 754 mmHg 97%
    05:00 +23°C° 0 mm 1 m/s 754 mmHg 97%
    06:00 +24°C° 0 mm 1 m/s 754 mmHg 95%
    07:00 +24°C° 0 mm 1 m/s 755 mmHg 93%
    08:00 +25°C° 0 mm 1 m/s 755 mmHg 92%
    09:00 +27°C° 0 mm 1 m/s 755 mmHg 81%
    10:00 +29°C° 0 mm 1 m/s 755 mmHg 71%
    11:00 +31°C° 0 mm 2 m/s 756 mmHg 60%
    12:00 +32°C° 0 mm 2 m/s 755 mmHg 55%
    13:00 +34°C° 0 mm 2 m/s 754 mmHg 50%
    14:00 +35°C° 0 mm 2 m/s 753 mmHg 45%
    15:00 +34°C° 0 mm 2 m/s 753 mmHg 48%
    16:00 +34°C° 0 mm 2 m/s 753 mmHg 51%
    17:00 +32°C° 0 mm 2 m/s 753 mmHg 53%
    18:00 +30°C° 0 mm 2 m/s 753 mmHg 62%
    19:00 +28°C° 0 mm 2 m/s 754 mmHg 70%
    20:00 +25°C° 0 mm 3 m/s 754 mmHg 78%
    21:00 +24°C° 0 mm 2 m/s 754 mmHg 81%
    22:00 +24°C° 0 mm 2 m/s 755 mmHg 84%
    23:00 +23°C° 0 mm 1 m/s 755 mmHg 88%

    Mâine, 24 Ianuarie, Vineri

    Timp Temperatura Precipitaţii Vânt Presiune Umiditate
    00:00 +22°C° 0 mm 1 m/s 755 mmHg 89%
    01:00 +22°C° 0 mm 1 m/s 754 mmHg 90%
    02:00 +22°C° 0 mm 1 m/s 754 mmHg 91%
    03:00 +22°C° 0 mm 1 m/s 754 mmHg 92%
    04:00 +21°C° 0 mm 1 m/s 754 mmHg 93%
    05:00 +21°C° 0 mm 1 m/s 754 mmHg 94%
    06:00 +22°C° 0 mm 1 m/s 755 mmHg 91%
    07:00 +23°C° 0 mm 1 m/s 755 mmHg 88%
    08:00 +22°C° 0 mm 0 m/s 756 mmHg 86%
    09:00 +26°C° 0 mm 1 m/s 756 mmHg 77%
    10:00 +29°C° 0 mm 1 m/s 756 mmHg 68%
    11:00 +31°C° 0 mm 2 m/s 756 mmHg 60%
    12:00 +32°C° 0 mm 2 m/s 756 mmHg 55%
    13:00 +34°C° 0 mm 2 m/s 755 mmHg 51%
    14:00 +35°C° 0 mm 2 m/s 754 mmHg 46%
    15:00 +34°C° 0 mm 2 m/s 754 mmHg 50%
    16:00 +34°C° 0 mm 2 m/s 753 mmHg 54%
    17:00 +33°C° 0 mm 3 m/s 753 mmHg 58%
    18:00 +30°C° 0 mm 3 m/s 754 mmHg 66%
    19:00 +28°C° 0 mm 3 m/s 754 mmHg 74%
    20:00 +26°C° 0 mm 3 m/s 755 mmHg 82%
    21:00 +26°C° 0 mm 3 m/s 755 mmHg 85%
    22:00 +25°C° 0 mm 2 m/s 755 mmHg 87%
    23:00 +25°C° 0 mm 2 m/s 756 mmHg 90%

    Poimâine, 25 Ianuarie, Sâmbătă

    Timp Temperatura Precipitaţii Vânt Presiune Umiditate
    00:00 +24°C° 0 mm 2 m/s 755 mmHg 92%
    01:00 +24°C° 0 mm 1 m/s 755 mmHg 94%
    02:00 +24°C° 0 mm 1 m/s 755 mmHg 96%
    03:00 +24°C° 0 mm 1 m/s 755 mmHg 96%
    04:00 +23°C° 0 mm 1 m/s 755 mmHg 96%
    05:00 +23°C° 0 mm 1 m/s 755 mmHg 96%
    06:00 +24°C° 0 mm 1 m/s 755 mmHg 93%
    07:00 +25°C° 0 mm 1 m/s 756 mmHg 90%
    08:00 +26°C° 0 mm 1 m/s 756 mmHg 87%
    09:00 +27°C° 0.4 mm 1 m/s 757 mmHg 84%
    10:00 +28°C° 0.4 mm 2 m/s 757 mmHg 81%
    11:00 +29°C° 0.4 mm 2 m/s 757 mmHg 78%
    12:00 +29°C° 0.9 mm 2 m/s 756 mmHg 79%
    13:00 +29°C° 0.9 mm 3 m/s 756 mmHg 80%
    14:00 +28°C° 0.9 mm 3 m/s 755 mmHg 82%
    15:00 +28°C° 0.1 mm 3 m/s 755 mmHg 82%
    16:00 +27°C° 0.1 mm 2 m/s 754 mmHg 83%
    17:00 +27°C° 0.1 mm 2 m/s 754 mmHg 84%
    18:00 +26°C° 0 mm 2 m/s 754 mmHg 87%
    19:00 +25°C° 0 mm 2 m/s 755 mmHg 89%
    20:00 +25°C° 0 mm 2 m/s 755 mmHg 92%
    21:00 +24°C° 0 mm 2 m/s 755 mmHg 93%
    22:00 +24°C° 0 mm 2 m/s 756 mmHg 94%
    23:00 +23°C° 0 mm 1 m/s 756 mmHg 95%

    26 Ianuarie, Duminică

    Timp Temperatura Precipitaţii Vânt Presiune Umiditate
    00:00 +23°C° 0 mm 1 m/s 756 mmHg 96%
    01:00 +23°C° 0 mm 1 m/s 755 mmHg 97%
    02:00 +23°C° 0 mm 1 m/s 755 mmHg 98%
    03:00 +23°C° 0 mm 1 m/s 755 mmHg 98%
    04:00 +22°C° 0 mm 1 m/s 755 mmHg 98%
    05:00 +22°C° 0 mm 1 m/s 755 mmHg 98%
    06:00 +23°C° 0 mm 1 m/s 756 mmHg 96%
    07:00 +24°C° 0 mm 1 m/s 756 mmHg 93%
    08:00 +24°C° 0 mm 1 m/s 757 mmHg 91%
    09:00 +26°C° 0 mm 2 m/s 757 mmHg 81%
    10:00 +28°C° 0 mm 2 m/s 757 mmHg 70%
    11:00 +30°C° 0 mm 2 m/s 757 mmHg 60%
    12:00 +31°C° 0 mm 2 m/s 756 mmHg 55%
    13:00 +32°C° 0 mm 2 m/s 756 mmHg 51%
    14:00 +34°C° 0 mm 2 m/s 755 mmHg 46%
    15:00 +32°C° 0 mm 2 m/s 754 mmHg 50%
    16:00 +32°C° 0 mm 2 m/s 754 mmHg 54%
    17:00 +31°C° 0 mm 2 m/s 754 mmHg 58%
    18:00 +29°C° 0 mm 2 m/s 754 mmHg 66%
    19:00 +27°C° 0 mm 2 m/s 754 mmHg 73%
    20:00 +25°C° 0 mm 3 m/s 755 mmHg 81%
    21:00 +24°C° 0 mm 2 m/s 755 mmHg 85%
    22:00 +24°C° 0 mm 2 m/s 756 mmHg 89%
    23:00 +23°C° 0 mm 2 m/s 756 mmHg 93%

    27 Ianuarie, Luni

    Timp Temperatura Precipitaţii Vânt Presiune Umiditate
    00:00 +23°C° 0 mm 1 m/s 756 mmHg 94%
    01:00 +22°C° 0 mm 1 m/s 755 mmHg 95%
    02:00 +22°C° 0 mm 1 m/s 755 mmHg 96%
    03:00 +22°C° 0 mm 1 m/s 755 mmHg 96%
    04:00 +22°C° 0 mm 1 m/s 755 mmHg 97%
    05:00 +22°C° 0 mm 1 m/s 755 mmHg 97%
    06:00 +23°C° 0 mm 1 m/s 756 mmHg 94%
    07:00 +24°C° 0 mm 1 m/s 756 mmHg 90%
    08:00 +25°C° 0 mm 1 m/s 757 mmHg 87%
    09:00 +26°C° 0 mm 1 m/s 757 mmHg 80%
    10:00 +28°C° 0 mm 2 m/s 757 mmHg 74%
    11:00 +30°C° 0 mm 2 m/s 757 mmHg 67%
    12:00 +31°C° 0 mm 2 m/s 756 mmHg 63%
    13:00 +32°C° 0 mm 2 m/s 756 mmHg 59%
    14:00 +34°C° 0 mm 2 m/s 755 mmHg 54%
    15:00 +32°C° 0 mm 2 m/s 754 mmHg 57%
    16:00 +32°C° 0 mm 2 m/s 754 mmHg 60%
    17:00 +31°C° 0 mm 2 m/s 753 mmHg 62%
    18:00 +30°C° 0 mm 2 m/s 754 mmHg 71%
    19:00 +28°C° 0 mm 2 m/s 755 mmHg 79%
    20:00 +26°C° 0 mm 2 m/s 755 mmHg 88%
    21:00 +25°C° 0 mm 2 m/s 755 mmHg 91%
    22:00 +25°C° 0 mm 2 m/s 756 mmHg 93%
    23:00 +24°C° 0 mm 2 m/s 756 mmHg 96%

    28 Ianuarie, Marţi

    Timp Temperatura Precipitaţii Vânt Presiune Umiditate
    00:00 +24°C° 0 mm 2 m/s 756 mmHg 96%
    01:00 +24°C° 0 mm 1 m/s 755 mmHg 97%
    02:00 +24°C° 0 mm 1 m/s 755 mmHg 97%
    03:00 +24°C° 0 mm 1 m/s 755 mmHg 98%
    04:00 +24°C° 0 mm 1 m/s 754 mmHg 98%
    05:00 +24°C° 0 mm 1 m/s 754 mmHg 98%
    06:00 +24°C° 0 mm 1 m/s 755 mmHg 95%
    07:00 +25°C° 0 mm 1 m/s 756 mmHg 93%
    08:00 +26°C° 0 mm 1 m/s 756 mmHg 90%
    09:00 +28°C° 0 mm 1 m/s 756 mmHg 81%
    10:00 +30°C° 0 mm 2 m/s 756 mmHg 72%
    11:00 +31°C° 0 mm 2 m/s 756 mmHg 64%
    12:00 +32°C° 0 mm 2 m/s 756 mmHg 61%
    13:00 +34°C° 0 mm 2 m/s 755 mmHg 58%
    14:00 +34°C° 0 mm 1 m/s 754 mmHg 54%
    15:00 +34°C° 0 mm 2 m/s 754 mmHg 58%
    16:00 +32°C° 0 mm 2 m/s 753 mmHg 62%
    17:00 +31°C° 0 mm 3 m/s 753 mmHg 65%
    18:00 +30°C° 0 mm 3 m/s 754 mmHg 72%
    19:00 +28°C° 0 mm 3 m/s 754 mmHg 79%
    20:00 +26°C° 0 mm 3 m/s 755 mmHg 86%
    21:00 +26°C° 0 mm 2 m/s 755 mmHg 89%
    22:00 +25°C° 0 mm 2 m/s 755 mmHg 92%
    23:00 +25°C° 0 mm 2 m/s 756 mmHg 95%
    Arată mai mult